Tracking 25963 objects as of 12-Aug-2022
HD Live streaming from Space Station
objects crossing your sky now

STARLINK-4016

Track STARLINK-4016 now!
10-day predictions
STARLINK-4016 is classified as:


NORAD ID: 52603
Int'l Code: 2022-052F
Perigee: 545.7 km
Apogee: 548.0 km
Inclination: 53.2 °
Period: 95.4 minutes
Semi major axis: 6917 km
RCS: Unknown
Launch date: May 14, 2022
Source: United States (US)
Launch site: AIR FORCE EASTERN TEST RANGE (AFETR)
aabbcc
Your satellite tracking list
Your tracking list is empty




NASA's NSSDC Master Catalog

Two Line Element Set (TLE):
1 52603U 22052F   22224.58334491 -.00019410  00000-0 -12041-2 0  9993
2 52603  53.2191  17.9577 0001641  58.8770 283.8570 15.08858056  1305
Source of the keplerian elements: AFSPC